EW2719 Weather Reports


time (UTC)temp
C
wind
direction
speed
KPH
gust
KPH
rain 1hr
cm
rain 24hr
cm
rain mn
cm
humidity
%
barometer
mb
20260906190002 15 217 1.6 4.8 0.00 0.00 0.00 83 1021.1
20260906184501 15 217 1.6 4.8 0.00 0.00 0.00 82 1021.1
20260906183105 15 227 1.6 4.8 0.00 0.00 0.00 81 1021.1
20260906181559 15 209 4.8 8.0 0.00 0.00 0.00 80 1021.1
20260906174554 16 237 6.4 14.5 0.00 0.00 0.00 78 1021.1
20260906173054 16 234 4.8 16.1 0.00 0.00 0.00 77 1021.1
20260906171553 16 260 8.0 16.1 0.00 0.00 0.00 77 1021.2
20260906170049 16 264 9.7 17.7 0.00 0.00 0.00 76 1021.2
20260906164549 16 256 6.4 17.7 0.00 0.00 0.00 76 1021.3
20260906163050 17 269 14.5 19.3 0.00 0.00 0.00 75 1021.5
20260906161546 17 252 11.3 19.3 0.00 0.00 0.00 74 1021.5
20260906154556 17 284 14.5 27.4 0.00 0.00 0.00 73 1021.5
20260906153046 17 272 16.1 33.8 0.00 0.00 0.00 72 1021.6
20260906151543 18 258 22.5 37.0 0.00 0.00 0.00 68 1021.5
20260906150043 17 263 19.3 30.6 0.00 0.00 0.00 72 1021.4
20260906144541 17 289 16.1 25.7 0.00 0.00 0.00 71 1021.5
20260906143040 17 299 19.3 27.4 0.00 0.00 0.00 72 1021.5
20260906141540 17 274 17.7 27.4 0.00 0.00 0.00 72 1021.6
20260906140041 17 294 22.5 27.4 0.00 0.00 0.00 70 1021.4
20260906134548 17 286 22.5 33.8 0.00 0.00 0.00 71 1021.5
20260906133105 17 306 16.1 25.7 0.00 0.00 0.00 74 1021.5
20260906131538 17 293 17.7 27.4 0.00 0.00 0.00 74 1021.5
20260906130039 17 303 12.9 29.0 0.00 0.00 0.00 73 1021.6
20260906124537 17 287 19.3 29.0 0.00 0.00 0.00 73 1021.6
20260906123036 17 296 19.3 29.0 0.00 0.00 0.00 72 1021.6
20260906121535 17 313 17.7 27.4 0.00 0.00 0.00 73 1021.6
20260906120036 16 304 22.5 33.8 0.00 0.00 0.00 72 1021.6
20260906114534 17 291 24.1 38.6 0.00 0.00 0.00 70 1021.6
20260906113033 17 308 25.7 35.4 0.00 0.00 0.00 70 1021.6
20260906111537 17 312 25.7 38.6 0.00 0.00 0.00 69 1021.4
20260906110034 18 277 22.5 35.4 0.00 0.00 0.00 71 1021.4
20260906104537 17 290 22.5 41.8 0.00 0.00 0.00 70 1021.4
20260906103033 17 281 27.4 38.6 0.00 0.00 0.00 70 1021.4
20260906101531 17 271 22.5 45.1 0.00 0.00 0.00 72 1021.3
20260906100023 17 263 24.1 33.8 0.00 0.00 0.00 74 1021.2
20260906094521 17 308 24.1 41.8 0.00 0.00 0.00 71 1020.9
20260906093018 16 269 25.7 40.2 0.00 0.00 0.00 72 1020.7
20260906091515 16 323 25.7 40.2 0.00 0.00 0.00 76 1020.5
20260906090012 16 288 29.0 37.0 0.00 0.00 0.00 77 1020.5
20260906084510 16 286 22.5 38.6 0.00 0.00 0.00 80 1020.3
20260906083008 15 312 22.5 38.6 0.00 0.00 0.00 80 1020.2
20260906081504 15 311 27.4 37.0 0.00 0.00 0.00 80 1019.8
20260906080002 15 290 22.5 35.4 0.00 0.03 0.00 81 1020.0
20260906074603 15 316 25.7 37.0 0.00 0.03 0.00 82 1019.8
20260906073058 15 308 20.9 32.2 0.00 0.03 0.00 83 1019.8
20260906071553 14 286 24.1 37.0 0.00 0.03 0.00 83 1019.7
20260906070051 14 318 22.5 30.6 0.00 0.03 0.00 85 1019.9
20260906064548 13 289 19.3 35.4 0.00 0.03 0.00 86 1019.2
20260906063044 13 300 24.1 35.4 0.00 0.03 0.00 87 1019.2
20260906061540 13 294 24.1 33.8 0.00 0.03 0.00 88 1019.0
20260906060036 13 285 20.9 32.2 0.00 0.03 0.00 89 1018.9
20260906054531 12 298 22.5 33.8 0.00 0.03 0.00 90 1018.8
20260906053027 12 276 24.1 37.0 0.00 0.03 0.00 90 1018.7
20260906051527 12 298 25.7 35.4 0.00 0.03 0.00 91 1018.3
20260906050023 12 292 24.1 33.8 0.00 0.03 0.00 90 1018.3
20260906044521 12 291 20.9 37.0 0.00 0.03 0.00 91 1018.1
20260906043015 12 288 20.9 29.0 0.00 0.03 0.00 91 1017.8
20260906041518 12 300 19.3 29.0 0.00 0.03 0.00 91 1017.7
20260906040011 12 294 19.3 33.8 0.00 0.03 0.00 91 1017.6
20260906034511 12 300 24.1 33.8 0.00 0.03 0.00 91 1017.5
20260906033009 12 293 22.5 33.8 0.00 0.03 0.00 91 1017.3
20260906031506 12 311 25.7 38.6 0.00 0.03 0.00 91 1017.0
20260906030005 12 292 19.3 32.2 0.00 0.05 0.00 90 1017.0
20260906024502 12 320 22.5 33.8 0.00 0.05 0.00 90 1016.7
20260906023003 12 285 24.1 33.8 0.00 0.05 0.00 90 1016.6
20260906021559 12 298 24.1 37.0 0.00 0.05 0.00 90 1016.4
20260906020058 12 303 22.5 33.8 0.00 0.05 0.00 90 1016.3
20260906014607 12 300 22.5 33.8 0.00 0.05 0.00 90 1016.2
20260906013053 12 291 20.9 40.2 0.00 0.05 0.00 89 1016.0
20260906011551 12 302 22.5 35.4 0.00 0.05 0.00 89 1015.9
20260906010048 12 302 22.5 40.2 0.00 0.05 0.00 89 1015.7
20260906004547 12 309 22.5 32.2 0.00 0.05 0.00 89 1015.6
20260906003045 12 287 25.7 37.0 0.00 0.05 0.00 89 1015.5
20260906001543 12 307 20.9 32.2 0.00 0.05 0.00 89 1015.4
20260906000042 12 273 24.1 37.0 0.00 0.05 0.00 89 1015.2
20260905234540 12 299 22.5 37.0 0.00 0.05 0.00 88 1015.0
20260905233040 12 288 25.7 37.0 0.00 0.05 0.00 88 1014.9
20260905231541 12 270 22.5 40.2 0.00 0.05 0.00 88 1014.6
20260905230036 12 302 24.1 35.4 0.00 0.05 0.00 88 1014.4
20260905224531 12 304 20.9 33.8 0.00 0.05 0.00 88 1014.3
20260905223028 12 292 20.9 35.4 0.00 0.05 0.00 88 1014.1
20260905221532 13 292 27.4 43.5 0.00 0.05 0.00 87 1014.0
20260905220022 13 317 25.7 46.7 0.00 0.05 0.00 87 1013.6
20260905214520 13 296 22.5 43.5 0.00 0.05 0.05 86 1013.3
20260905213018 13 299 27.4 40.2 0.00 0.05 0.05 85 1013.2
20260905211526 13 291 22.5 38.6 0.00 0.05 0.05 84 1013.1
20260905210014 13 292 20.9 48.3 0.00 0.05 0.05 84 1012.9
20260905204512 13 317 32.2 46.7 0.00 0.05 0.05 84 1012.6
20260905203016 13 306 25.7 46.7 0.00 0.05 0.05 83 1012.5
20260905201510 13 298 25.7 40.2 0.00 0.05 0.05 83 1012.4
20260905200013 13 298 30.6 48.3 0.00 0.05 0.05 83 1012.0
20260905194507 13 277 29.0 46.7 0.00 0.05 0.05 83 1011.8
20260905193006 13 297 25.7 45.1 0.00 0.05 0.05 83 1011.5
20260905191503 13 327 33.8 49.9 0.00 0.05 0.05 85 1011.3